Wind_Speed
30 32 33 35 37 38 39 39 38 38 37 37 35 34 33 32 32 32 30 28 28 28 27 26 24 21 20 19 20 21 21 21 21 21 20 20 21 20 20 21 22 23 23 22
29 32 35 36 36 37 39 41 40 40 40 41 41 40 36 34 34 33 31 30 29 28 28 29 26 23 22 21 20 21 21 22 22 22 21 21 21 22 22 22 23 24 25 24
25 29 32 33 34 36 38 40 40 39 39 41 42 41 36 32 31 31 31 30 29 29 30 31 28 24 23 21 21 21 21 21 22 22 21 22 22 23 23 24 25 26 27 26
25 28 30 31 32 35 36 37 38 37 39 39 39 39 33 29 29 30 31 31 30 29 30 32 29 25 23 22 22 21 21 20 20 20 21 22 23 23 24 26 27 28 28 28
22 27 30 30 32 33 34 34 34 34 35 34 33 36 31 29 28 25 26 29 30 29 30 32 29 25 24 23 22 20 19 19 19 19 20 22 24 25 26 27 28 29 29 28
17 22 26 28 29 32 33 33 32 32 33 32 29 32 30 28 26 24 24 26 28 28 29 31 27 25 24 22 20 19 19 20 20 21 22 23 25 27 27 28 28 28 27 26
16 19 24 28 28 28 30 30 30 29 28 28 27 27 25 23 23 23 22 22 24 25 26 27 24 23 22 20 19 19 19 20 21 22 23 25 26 26 27 27 26 26 25 24
19 18 23 29 27 25 26 25 26 27 26 24 20 19 18 18 20 20 20 21 19 19 20 20 19 19 18 17 18 19 20 21 22 23 25 26 26 26 25 25 24 23 21 21
24 22 24 28 28 27 25 23 23 25 27 27 22 18 17 15 16 18 20 20 19 16 16 15 15 15 16 17 18 19 20 21 22 24 24 25 24 24 23 22 21 20 19 18
28 29 27 29 29 27 25 22 21 24 25 24 22 21 22 18 15 13 14 16 16 16 17 16 16 16 16 17 19 20 21 21 22 22 22 23 23 22 21 20 19 19 18 17
34 36 33 29 25 25 24 24 24 26 24 21 20 21 22 20 17 16 17 16 16 17 17 18 17 15 15 16 18 20 21 21 22 22 22 22 22 21 20 19 18 18 18 18
39 39 37 28 22 25 26 25 23 23 24 24 22 21 20 22 17 13 13 15 16 17 18 18 16 15 16 17 18 19 21 22 23 22 22 22 22 21 20 19 18 18 18 19
43 40 35 24 20 25 27 27 26 26 24 21 20 21 24 25 24 17 13 13 14 16 17 18 19 18 19 20 20 21 21 22 22 23 23 23 22 21 20 19 18 19 19 19
42 35 28 22 18 20 21 21 22 25 26 24 23 23 24 25 24 22 19 15 15 18 20 21 21 20 21 22 22 22 22 23 23 24 24 24 23 22 21 20 19 20 20 20
37 29 22 18 15 14 14 10 11 16 20 20 21 23 22 24 24 23 22 20 20 22 23 24 24 23 22 22 22 22 23 24 24 24 25 24 23 22 22 21 22 22 22 21
32 23 16 11 8 8 9 10 10 13 16 17 18 18 18 20 20 19 20 21 22 22 23 23 23 22 21 21 21 21 23 23 24 24 24 23 24 24 23 23 23 23 23 23
31 20 13 5 4 7 8 8 8 9 10 11 12 12 11 11 12 13 14 15 16 17 17 17 18 18 18 18 19 20 20 21 22 23 23 23 24 24 24 24 24 24 24 25
29 18 9 1 5 5 7 7 6 8 6 6 5 4 4 5 6 6 6 7 8 8 9 10 11 13 14 15 16 18 18 19 21 22 22 22 23 24 25 25 25 25 25 25
27 16 7 0 3 3 5 9 8 7 7 5 3 3 3 2 2 3 1 1 1 2 3 4 6 8 9 12 14 16 17 18 19 20 21 23 24 25 26 26 25 25 25 25
25 16 6 2 3 5 4 7 7 7 7 6 4 4 3 2 1 3 4 4 4 3 2 1 4 6 9 11 14 16 17 18 19 20 22 23 25 25 25 24 23 23 23 23
26 16 7 2 3 4 4 4 5 7 7 6 4 3 3 1 2 4 5 5 5 4 3 4 6 8 11 13 15 16 16 17 19 21 22 23 23 23 22 21 21 20 20 21
28 17 8 3 3 3 3 4 6 6 5 5 5 3 2 3 3 4 4 4 4 4 5 7 9 11 13 14 14 15 16 17 19 21 22 22 22 21 20 19 18 18 19 20
29 18 9 4 3 2 3 4 6 7 7 6 5 1 3 4 3 3 4 4 4 6 7 9 11 12 12 13 14 15 16 18 19 20 21 21 20 19 17 17 17 17 18 20
31 19 10 5 4 3 4 4 5 7 7 6 4 2 4 4 3 3 3 4 6 7 10 11 12 12 12 13 14 15 17 18 19 19 19 19 18 17 17 16 16 16 17 19
35 22 12 5 4 4 4 4 5 7 7 5 4 4 5 4 3 3 4 5 7 9 11 12 12 12 12 13 14 15 16 17 18 19 19 19 18 17 16 14 14 15 16 17
37 27 16 7 3 4 4 4 5 8 7 5 4 4 4 3 2 3 5 7 8 10 12 12 12 12 13 14 14 15 17 18 19 20 19 18 16 15 13 13 13 14 14 15
Wind_Direction
246 249 251 253 256 259 260 261 260 260 262 263 265 266 266 267 269 271 275 278 280 280 280 276 275 276 277 280 285 289 293 296 298 302 303 303 302 302 298 296 297 299 300 297
255 255 257 260 263 265 266 267 266 264 264 267 270 272 272 268 266 268 272 273 274 273 273 269 271 274 276 277 279 284 290 295 299 303 303 301 301 300 300 298 297 296 295 293
268 267 268 268 269 270 270 272 272 270 268 269 271 272 270 267 268 268 269 270 269 266 267 268 268 270 273 275 277 282 287 292 297 300 299 299 300 300 300 299 297 296 294 291
274 273 273 273 272 272 272 273 273 273 271 270 271 271 267 264 263 266 268 268 266 261 260 263 266 268 270 272 275 279 286 291 294 296 297 299 300 301 301 300 298 295 293 289
282 282 280 276 274 273 273 273 273 271 271 270 270 270 266 260 258 256 258 261 262 257 253 257 261 264 265 268 273 278 284 291 295 297 298 299 301 301 301 299 297 294 292 289
300 294 292 287 279 275 273 273 272 271 273 273 273 271 267 260 250 240 238 247 255 254 248 252 256 257 259 264 271 278 288 293 297 299 299 300 301 301 300 299 297 294 292 289
306 299 295 293 290 283 278 275 273 272 273 276 274 273 269 259 251 247 247 250 252 251 247 248 249 251 255 261 272 282 289 292 296 298 299 300 300 298 297 296 295 294 293 290
311 294 283 283 284 282 281 275 272 269 267 269 271 274 276 271 271 272 274 272 263 253 251 251 246 246 253 263 275 284 289 292 296 298 299 299 297 295 294 292 292 293 292 290
316 301 282 277 275 275 275 268 266 267 266 265 269 274 278 276 282 284 286 284 276 267 261 256 250 251 260 271 278 283 288 293 296 297 298 298 296 294 293 291 290 290 289 287
315 306 297 279 270 268 267 261 253 257 262 257 256 254 251 247 234 236 253 261 261 262 259 253 251 255 264 272 279 284 289 293 296 297 297 298 298 296 294 292 288 285 283 280
315 308 304 289 275 261 256 248 243 246 250 255 251 251 251 246 224 207 207 219 233 242 245 242 244 251 261 272 281 287 293 296 297 297 296 297 299 298 296 292 288 285 281 276
318 310 304 295 267 253 248 241 238 244 246 244 248 253 259 255 240 218 207 220 225 241 255 263 270 275 278 280 283 288 293 297 298 297 298 300 302 301 297 292 288 287 284 278
321 313 306 295 263 251 249 240 235 240 247 248 247 253 256 258 257 250 238 230 243 254 260 267 271 274 280 284 287 290 293 296 296 296 299 302 304 302 298 293 290 288 286 282
323 318 310 295 271 259 255 243 229 231 240 247 250 252 254 258 265 266 271 271 267 267 268 269 269 271 277 282 286 289 290 293 294 295 299 302 303 302 298 294 291 290 288 284
329 322 311 289 268 267 267 254 232 234 240 245 249 257 264 265 271 274 275 275 272 269 267 267 268 269 271 275 279 284 288 289 293 296 299 301 302 302 299 295 292 289 287 285
340 332 322 298 256 244 251 249 245 241 245 247 251 259 265 272 275 276 275 272 270 267 263 263 264 268 269 270 275 280 283 288 292 295 297 298 298 298 296 294 291 288 287 286
348 342 337 321 191 185 222 236 240 240 244 245 251 260 267 271 280 282 278 273 268 264 259 256 258 260 262 268 275 280 284 288 291 294 296 297 298 298 297 295 292 289 287 285
351 352 353 37 159 198 205 200 224 232 230 227 230 256 280 292 290 291 287 278 265 254 251 251 253 259 267 275 279 285 289 291 293 297 298 299 299 298 297 296 293 289 287 284
356 357 353 136 182 225 227 230 231 217 214 217 227 273 283 292 308 1 30 90 138 186 222 251 265 273 279 285 291 294 297 298 298 298 300 301 301 299 297 295 292 289 287 283
1 359 348 273 230 235 250 240 236 222 238 227 231 251 246 268 289 50 73 92 97 98 89 324 303 300 300 302 303 303 303 303 302 303 304 303 302 301 299 296 293 290 288 285
4 3 357 298 249 247 260 237 227 232 227 222 232 242 218 173 75 81 80 84 79 64 27 347 329 320 314 311 309 308 307 306 306 307 308 307 305 304 301 297 294 292 290 288
5 5 360 326 284 247 248 257 237 232 224 224 218 193 133 94 90 81 71 64 49 21 356 340 329 322 317 314 313 311 310 310 310 311 312 311 309 307 302 298 296 295 294 292
6 6 360 335 312 275 284 282 237 233 225 221 211 214 115 103 90 72 55 38 16 357 341 331 324 320 317 316 316 314 313 314 314 314 315 314 311 309 305 303 301 300 298 295
7 8 2 335 290 285 296 300 238 217 213 218 227 172 124 103 82 53 29 10 355 343 334 327 323 321 321 321 321 320 319 319 320 319 319 318 316 313 310 308 307 307 307 305
7 8 5 342 287 269 285 289 229 212 210 222 225 158 127 100 70 24 1 354 346 339 334 330 327 325 324 325 326 327 327 327 328 326 323 321 319 317 315 313 313 314 315 317
7 8 4 352 315 260 261 253 218 199 203 215 202 174 138 109 51 4 349 346 342 339 336 334 332 330 329 331 334 335 335 333 332 329 325 322 320 320 319 319 322 324 327 331
Height
5843 5846 5846 5846 5847 5848 5848 5848 5849 5849 5848 5848 5847 5847 5848 5849 5850 5851 5852 5853 5852 5852 5851 5851 5851 5852 5851 5851 5850 5849 5849 5848 5847 5846 5845 5845 5845 5845 5844 5843 5841 5840 5839 5839
5839 5840 5840 5841 5841 5841 5840 5840 5840 5841 5841 5841 5840 5841 5842 5842 5843 5844 5845 5846 5846 5846 5846 5845 5846 5847 5847 5847 5846 5846 5845 5843 5843 5842 5841 5840 5840 5839 5839 5838 5837 5835 5834 5834
5834 5834 5833 5834 5834 5834 5833 5832 5832 5833 5833 5833 5832 5833 5835 5835 5836 5837 5838 5839 5840 5840 5839 5839 5840 5842 5842 5842 5842 5841 5840 5839 5838 5837 5836 5836 5835 5833 5833 5832 5830 5829 5828 5828
5829 5828 5827 5827 5826 5825 5825 5824 5824 5824 5824 5824 5824 5824 5828 5827 5828 5829 5831 5832 5833 5834 5833 5832 5834 5836 5837 5837 5836 5836 5835 5835 5834 5833 5832 5830 5829 5828 5827 5825 5824 5822 5822 5821
5824 5822 5821 5820 5819 5817 5816 5816 5816 5816 5815 5816 5816 5815 5820 5819 5820 5821 5823 5823 5824 5826 5826 5825 5828 5830 5831 5831 5831 5831 5830 5830 5829 5828 5827 5825 5824 5822 5821 5819 5817 5815 5814 5814
5819 5817 5814 5813 5811 5810 5808 5808 5808 5808 5808 5809 5809 5808 5811 5811 5812 5812 5813 5815 5816 5818 5819 5819 5822 5823 5824 5825 5825 5826 5825 5825 5824 5823 5821 5820 5818 5816 5814 5812 5811 5809 5808 5807
5815 5813 5809 5805 5804 5803 5802 5802 5802 5801 5801 5802 5802 5802 5804 5804 5805 5806 5807 5808 5809 5810 5811 5813 5815 5817 5818 5819 5820 5820 5820 5820 5819 5817 5816 5814 5812 5810 5808 5806 5804 5803 5802 5801
5810 5809 5805 5800 5798 5797 5796 5796 5796 5796 5796 5795 5795 5796 5798 5798 5799 5801 5801 5802 5803 5804 5805 5808 5809 5811 5813 5814 5815 5815 5815 5814 5813 5811 5809 5808 5806 5804 5802 5801 5799 5797 5796 5795
5805 5802 5798 5794 5791 5790 5790 5790 5790 5789 5789 5790 5791 5792 5792 5793 5794 5796 5797 5797 5798 5799 5801 5803 5804 5806 5808 5809 5810 5810 5810 5809 5807 5806 5804 5802 5800 5798 5797 5795 5794 5792 5791 5791
5798 5793 5790 5786 5783 5783 5783 5783 5784 5784 5783 5784 5787 5787 5787 5788 5787 5788 5790 5791 5793 5794 5795 5797 5799 5801 5803 5804 5804 5804 5804 5803 5802 5800 5799 5797 5795 5793 5792 5790 5789 5788 5787 5787
5790 5783 5780 5776 5774 5773 5774 5775 5775 5776 5777 5778 5780 5784 5781 5781 5781 5780 5780 5782 5786 5788 5788 5789 5791 5794 5796 5799 5799 5798 5798 5797 5796 5795 5793 5792 5790 5788 5786 5785 5784 5783 5782 5782
5780 5773 5767 5766 5764 5762 5764 5764 5766 5768 5770 5771 5774 5778 5774 5775 5775 5775 5775 5779 5782 5785 5787 5788 5789 5791 5792 5794 5794 5794 5793 5792 5791 5790 5788 5787 5785 5783 5781 5780 5779 5778 5778 5777
5768 5761 5755 5754 5756 5755 5754 5755 5758 5762 5764 5766 5769 5773 5770 5770 5772 5773 5774 5776 5779 5782 5784 5785 5787 5787 5788 5788 5788 5788 5787 5787 5786 5784 5783 5782 5780 5778 5776 5775 5774 5773 5773 5772
5757 5750 5746 5745 5745 5745 5747 5747 5750 5756 5759 5763 5765 5766 5765 5767 5768 5769 5771 5773 5776 5778 5779 5781 5782 5783 5784 5783 5783 5782 5782 5781 5780 5779 5778 5776 5775 5773 5772 5770 5769 5768 5767 5767
5749 5743 5738 5736 5737 5740 5741 5743 5747 5752 5755 5758 5760 5761 5762 5763 5764 5766 5768 5769 5771 5773 5774 5775 5776 5777 5778 5778 5778 5777 5776 5776 5775 5774 5772 5771 5769 5768 5766 5765 5763 5762 5761 5761
5743 5737 5733 5732 5733 5737 5739 5742 5745 5749 5751 5754 5756 5758 5759 5759 5760 5761 5762 5764 5765 5766 5767 5768 5769 5771 5772 5772 5772 5772 5771 5770 5769 5768 5767 5766 5764 5762 5760 5759 5757 5756 5755 5754
5740 5734 5731 5730 5731 5734 5737 5740 5743 5745 5748 5751 5753 5755 5755 5756 5757 5757 5758 5758 5759 5760 5761 5762 5764 5765 5766 5767 5767 5766 5766 5766 5764 5763 5762 5760 5758 5756 5754 5753 5751 5750 5748 5747
5738 5733 5731 5731 5733 5735 5738 5738 5742 5744 5747 5749 5751 5752 5753 5754 5754 5754 5754 5754 5755 5756 5757 5759 5760 5762 5763 5763 5763 5763 5762 5761 5760 5758 5756 5755 5752 5750 5748 5746 5745 5743 5742 5741
5738 5734 5732 5732 5732 5733 5736 5737 5740 5743 5745 5747 5749 5750 5751 5752 5752 5753 5753 5753 5753 5755 5756 5758 5759 5760 5760 5760 5760 5759 5758 5757 5755 5753 5751 5749 5747 5744 5742 5739 5737 5736 5735 5734
5739 5734 5733 5733 5734 5734 5737 5738 5739 5743 5745 5746 5748 5750 5751 5752 5753 5753 5753 5753 5753 5754 5756 5757 5757 5757 5757 5757 5756 5755 5754 5753 5751 5749 5746 5744 5741 5738 5735 5732 5730 5729 5728 5726
5741 5736 5734 5735 5735 5736 5738 5739 5742 5744 5746 5746 5748 5749 5750 5752 5753 5754 5754 5754 5754 5755 5756 5756 5756 5756 5755 5754 5753 5751 5750 5748 5747 5744 5742 5739 5735 5732 5729 5727 5725 5723 5721 5720
5742 5738 5736 5736 5737 5740 5739 5741 5743 5744 5745 5747 5749 5750 5751 5753 5754 5754 5755 5755 5755 5755 5755 5755 5754 5753 5752 5751 5749 5748 5746 5745 5742 5740 5737 5734 5730 5727 5724 5722 5720 5718 5716 5714
5743 5740 5738 5738 5740 5740 5740 5741 5742 5744 5746 5748 5750 5751 5752 5754 5755 5755 5756 5756 5756 5756 5755 5754 5753 5751 5750 5748 5746 5744 5743 5740 5738 5735 5732 5729 5726 5723 5720 5718 5716 5714 5711 5709
5746 5741 5739 5739 5740 5741 5741 5742 5743 5745 5747 5749 5751 5752 5754 5755 5756 5756 5757 5757 5756 5756 5755 5753 5752 5750 5748 5746 5744 5741 5739 5737 5734 5731 5728 5725 5722 5719 5716 5714 5712 5709 5707 5704
5749 5743 5741 5740 5740 5741 5742 5742 5743 5745 5748 5750 5752 5753 5754 5755 5756 5757 5757 5757 5757 5756 5754 5752 5750 5748 5746 5744 5742 5739 5736 5733 5731 5728 5725 5721 5718 5715 5713 5710 5708 5705 5702 5699
5751 5745 5742 5740 5740 5740 5742 5743 5744 5746 5749 5751 5753 5754 5755 5756 5757 5758 5758 5758 5757 5755 5753 5751 5749 5747 5745 5742 5739 5736 5733 5731 5728 5725 5721 5718 5715 5712 5710 5708 5705 5702 5699 5696